Estherville, IA

1:12 PM CDT on September 27, 2016 (GMT -0500)
Estherville Municipal

Weather History for KEST - March, 2013

Change the Weather History Date:

Wednesday, March 20, 2013

  Actual Average Record
Temperature  
Mean Temperature 16 °F 35 °F  
Max Temperature 23 °F 44 °F 65 °F (2015)
Min Temperature 8 °F 26 °F -3 °F (1951)
Degree Days  
Heating Degree Days 49 30  
Month to date heating degree days 822 697  
Since 1 July heating degree days 6461 6612  
Cooling Degree Days 0 0  
Month to date cooling degree days 0 0  
Year to date cooling degree days 0 0  
Moisture  
Dew Point 5 °F    
Average Humidity 61    
Maximum Humidity 73    
Minimum Humidity 49    
Precipitation  
Precipitation T in 0.06 in 0.99 in (1969)
Month to date precipitation 1.05 0.82  
Sea Level Pressure  
Sea Level Pressure 30.30 in    
Wind  
Wind Speed 17 mph (NW)    
Max Wind Speed 30 mph    
Max Gust Speed 35 mph    
Visibility 10 miles    
Events Snow    
T = Trace of Precipitation, MM = Missing Value Source: NWS Daily Summary

Daily Weather History Graph

Daily Weather History Graph

Search for Another Location

Airport or City:

Trip Planner

Search our weather history database for the weather conditions in past years. The results will help you decide how hot, cold, wet, or windy it might be!

Date:

Astronomy

Mar. 20, 2013 Rise Set
Actual Time 7:21 AM CDT 7:31 PM CDT
Civil Twilight 6:53 AM CDT 8:00 PM CDT
Nautical Twilight 6:19 AM CDT 8:33 PM CDT
Astronomical Twilight 5:45 AM CDT 9:07 PM CDT
Moon 12:58 PM CDT (3/20) 3:11 AM CDT (3/20)
Length of Visible Light 13h 06m
Length of Day
12h 09m
First Quarter, 59% of the Moon is Illuminated
Mar 20
First Quarter
Mar 27
Full
Apr 2
Last Quarter
Apr 10
New
Apr 18
First Quarter

Hourly Weather History & Observations

Time (CDT) Temp. Windchill Dew Point Humidity Pressure Visibility Wind Dir Wind Speed Gust Speed Precip Events Conditions
12:52 AM 14.0 °F -4.7 °F 6.1 °F 71% 30.33 in 6.0 mi NW 23.0 mph 28.8 mph 0.00 in Snow Light Snow
1:52 AM 12.9 °F -4.9 °F 5.0 °F 71% 30.34 in 10.0 mi NW 19.6 mph - 0.00 in   Mostly Cloudy
2:52 AM 10.9 °F -7.0 °F 3.9 °F 73% 30.35 in 9.0 mi NW 18.4 mph 25.3 mph 0.00 in   Mostly Cloudy
3:04 AM 10.4 °F -8.6 °F 3.2 °F 73% 30.28 in 10.0 mi NW 20.7 mph 26.5 mph N/A   Partly Cloudy
3:52 AM 10.0 °F -8.1 °F 3.0 °F 73% 30.35 in 10.0 mi NW 18.4 mph - N/A   Clear
4:52 AM 10.0 °F -7.1 °F 1.9 °F 70% 30.35 in 10.0 mi NW 16.1 mph - N/A   Clear
5:52 AM 9.0 °F -9.0 °F 1.9 °F 73% 30.36 in 10.0 mi NW 17.3 mph - N/A   Clear
6:52 AM 9.0 °F -9.0 °F 1.9 °F 73% 30.37 in 10.0 mi NW 17.3 mph - N/A   Clear
7:52 AM 9.0 °F -9.0 °F 1.9 °F 73% 30.38 in 10.0 mi WNW 17.3 mph - N/A   Clear
8:52 AM 10.9 °F -7.0 °F 1.9 °F 67% 30.37 in 10.0 mi NW 18.4 mph - N/A   Clear
9:52 AM 14.0 °F -3.0 °F 1.9 °F 59% 30.36 in 10.0 mi NNW 18.4 mph 26.5 mph N/A   Clear
10:52 AM 16.0 °F -1.7 °F 3.0 °F 57% 30.35 in 10.0 mi NNW 21.9 mph 28.8 mph N/A   Clear
11:52 AM 19.0 °F 2.4 °F 3.9 °F 52% 30.34 in 10.0 mi NNW 21.9 mph 32.2 mph N/A   Clear
12:52 PM 19.9 °F 5.2 °F 6.1 °F 55% 30.32 in 10.0 mi NW 17.3 mph 26.5 mph N/A   Clear
1:52 PM 21.0 °F 5.4 °F 8.1 °F 57% 30.29 in 10.0 mi NW 20.7 mph 28.8 mph N/A   Partly Cloudy
2:52 PM 21.9 °F 7.3 °F 8.1 °F 55% 30.27 in 10.0 mi NNW 18.4 mph 29.9 mph N/A   Partly Cloudy
3:52 PM 21.9 °F 6.2 °F 8.1 °F 55% 30.25 in 10.0 mi NNW 21.9 mph - N/A   Partly Cloudy
4:52 PM 23.0 °F 8.0 °F 10.0 °F 58% 30.24 in 10.0 mi NNW 20.7 mph 28.8 mph N/A   Clear
5:52 PM 21.9 °F 6.5 °F 8.1 °F 55% 30.22 in 10.0 mi NNW 20.7 mph 26.5 mph N/A   Clear
6:52 PM 21.0 °F 7.1 °F 7.0 °F 55% 30.22 in 10.0 mi NW 16.1 mph - N/A   Clear
7:52 PM 18.0 °F 3.6 °F 7.0 °F 62% 30.21 in 10.0 mi NNW 15.0 mph - N/A   Clear
8:52 PM 17.1 °F 3.0 °F 7.0 °F 65% 30.21 in 10.0 mi NNW 13.8 mph - N/A   Clear
9:52 PM 16.0 °F 2.9 °F 7.0 °F 68% 30.21 in 10.0 mi NNW 11.5 mph - N/A   Clear
10:52 PM 14.0 °F 0.5 °F 5.0 °F 67% 30.21 in 10.0 mi North 11.5 mph - N/A   Clear
11:52 PM 12.9 °F 0.7 °F 5.0 °F 71% 30.20 in 10.0 mi NNW 9.2 mph - N/A   Clear